RH
91 85 76 74 80 76 72 68 65 60 58 52 56 55 57 60 57 57 60 62 60 59 57 56 56 65 60 57 67 68 67 63 58 63 64 64 64 62 66 63 65 70 66
85 80 79 75 79 73 69 66 64 61 58 53 53 53 61 62 60 59 64 65 64 57 59 56 58 60 57 59 66 67 66 62 57 60 71 79 75 65 63 61 62 68 71
80 78 77 82 77 70 68 66 63 59 59 55 54 61 64 63 59 56 57 57 63 62 60 60 59 57 55 68 70 69 64 60 59 62 71 76 74 62 61 63 67 68 70
72 81 81 84 78 70 66 66 64 62 58 57 58 67 68 65 62 61 61 56 54 60 59 62 56 53 52 52 65 63 64 61 64 70 70 69 59 61 57 59 62 63 66
71 75 80 85 79 71 67 66 63 59 61 59 64 64 66 64 59 58 57 54 59 58 58 60 61 57 55 52 66 65 58 60 65 69 67 78 78 54 56 57 58 58 60
73 76 86 86 78 76 72 66 64 59 58 57 65 69 64 64 61 57 55 53 58 58 59 57 61 59 54 58 62 61 59 60 65 69 77 66 67 57 57 56 56 56 55
87 85 85 86 80 75 69 68 65 62 60 58 66 67 63 62 54 59 61 59 61 64 62 60 60 62 62 62 64 64 63 63 71 71 80 74 71 55 54 55 55 53 54
80 83 83 86 81 76 73 71 68 64 62 58 61 64 62 58 62 64 61 64 64 68 66 62 61 63 66 63 63 66 65 69 65 69 75 77 66 56 54 54 54 55 54
77 86 91 85 80 81 78 76 73 71 64 68 64 65 65 67 69 64 66 71 67 70 64 62 58 60 66 66 65 68 67 72 78 69 64 75 67 55 54 52 54 54 55
76 82 93 91 86 87 87 81 80 76 73 73 75 75 75 75 78 76 80 78 73 70 67 63 56 54 58 65 68 68 75 76 80 64 72 77 59 54 55 52 51 51 53
56 72 83 88 87 84 80 82 81 79 75 77 81 82 82 87 86 87 86 85 78 73 69 62 54 56 66 74 72 74 77 92 84 62 72 72 60 54 54 55 52 50 50
63 59 65 78 79 81 60 77 90 84 89 90 89 91 90 90 86 76 88 86 78 76 74 65 57 61 72 75 81 80 90 90 81 66 72 75 62 54 54 54 54 52 51
66 64 59 68 70 73 64 81 85 91 95 93 89 90 90 78 89 92 98 96 96 90 94 81 77 76 82 80 69 74 89 90 74 59 60 80 65 58 56 58 59 58 56
67 64 61 61 68 67 67 80 77 77 83 84 81 80 86 88 90 94 97 98 98 97 98 97 94 87 85 72 69 75 84 77 66 55 53 85 74 63 59 59 62 63 62
63 63 65 65 70 71 69 69 76 72 75 73 76 74 75 81 82 83 88 90 93 90 92 96 90 78 76 68 56 55 54 57 55 50 47 85 82 72 60 59 60 62 62
52 58 61 63 69 71 68 64 60 70 74 74 74 75 70 73 76 77 77 75 78 77 77 80 78 72 68 67 56 52 49 46 44 44 50 53 84 79 68 57 56 57 58
44 49 56 60 61 73 73 70 58 61 64 68 69 72 70 71 76 74 72 71 69 73 72 75 77 74 72 66 70 64 51 45 42 41 44 51 56 81 76 53 52 52 55
46 44 48 47 59 65 78 75 70 62 63 65 63 66 69 67 72 76 73 68 69 74 73 77 76 77 79 74 74 71 66 58 50 43 41 40 45 44 70 72 63 61 60
46 45 46 48 60 66 65 69 75 68 66 65 70 64 60 66 67 68 68 71 76 77 74 73 79 77 78 75 73 72 69 68 62 48 48 44 42 44 48 59 73 67 65
38 38 48 48 49 65 67 69 81 81 72 80 69 66 69 61 66 72 69 71 82 75 73 88 75 87 73 72 66 63 71 64 64 64 56 46 45 47 47 45 49 65 73
52 50 46 43 55 55 81 83 86 75 92 90 85 76 75 71 69 74 70 79 84 75 70 71 75 82 75 92 88 77 81 76 69 63 59 59 57 56 53 50 51 51 51
62 59 52 48 47 57 62 71 81 88 89 85 85 82 79 77 75 74 70 72 76 76 77 75 76 75 75 87 78 94 84 82 76 66 65 64 60 56 58 60 56 54 55
61 62 55 49 46 49 61 72 75 80 84 88 89 88 83 78 74 75 70 72 74 79 77 79 78 77 78 90 81 77 95 94 94 86 76 65 63 64 63 58 58 56 55
61 57 50 50 51 49 52 60 70 78 81 83 82 80 79 81 76 74 74 76 78 80 80 79 78 78 74 78 91 77 72 85 91 92 88 81 76 67 68 70 66 64 60
61 58 53 49 48 49 51 61 67 69 76 79 79 78 78 75 79 79 77 78 82 82 82 78 76 83 82 80 78 78 87 80 78 82 83 70 86 71 66 64 59 57 54
60 58 57 52 52 51 51 50 53 56 67 74 79 80 80 79 77 78 85 84 82 81 83 81 80 77 82 84 82 78 81 88 83 90 89 82 76 67 74 62 56 54 54
Wind_Speed
4 8 15 14 14 15 14 11 10 8 9 6 6 5 4 6 4 4 5 5 6 7 6 5 3 6 6 7 10 9 8 8 8 8 7 7 7 7 9 10 10 5 7
11 9 15 13 16 15 13 11 9 8 8 6 4 5 6 7 6 6 6 8 5 6 8 4 4 5 4 5 9 9 6 3 3 4 5 3 5 9 8 7 8 10 13
13 10 11 15 16 14 12 11 9 8 7 6 3 6 9 7 6 4 5 5 7 7 7 5 4 6 4 5 9 10 4 2 4 5 4 3 5 8 8 8 9 9 11
13 10 9 16 16 14 12 11 10 9 6 6 6 5 9 8 7 6 6 5 3 6 6 6 3 5 4 2 4 6 2 3 7 11 4 4 5 8 7 7 6 9 9
11 11 11 15 15 14 13 12 9 9 6 6 8 4 7 7 6 5 5 5 5 5 5 5 3 4 3 3 2 4 1 3 6 8 3 5 4 5 7 8 7 6 7
7 9 15 16 16 14 13 11 9 8 7 5 7 6 3 8 7 4 5 3 5 4 3 3 3 1 3 3 3 3 2 4 6 6 3 7 5 8 8 7 7 7 7
7 9 13 17 17 15 14 12 9 9 8 7 7 5 3 5 5 6 4 4 5 4 4 3 4 4 3 3 5 3 4 5 4 5 5 6 4 7 7 6 5 5 7
10 9 11 13 14 15 13 12 10 10 10 9 7 5 4 4 4 7 5 8 7 6 5 4 4 6 5 4 5 4 5 6 4 4 3 4 7 8 7 6 5 4 4
11 10 8 8 9 11 10 11 10 10 9 6 9 7 6 4 3 6 6 6 8 7 5 5 6 7 9 8 7 6 6 8 5 2 4 4 7 8 6 5 5 5 4
10 11 10 9 8 6 6 12 11 9 9 9 12 9 6 7 7 7 6 7 8 7 6 7 7 8 10 11 10 8 7 9 5 5 4 4 12 10 8 7 6 7 6
5 9 10 10 9 8 7 7 11 11 10 10 11 10 8 4 6 7 6 8 9 8 8 9 9 10 9 8 10 10 9 4 5 4 3 11 13 11 10 9 8 8 8
8 7 10 11 11 9 8 8 7 7 5 5 5 6 5 6 5 6 7 11 11 10 10 10 10 10 8 4 4 10 4 6 5 5 4 16 14 13 13 12 11 11 10
8 5 7 9 10 10 7 6 4 3 4 4 7 6 6 5 4 4 4 4 4 6 4 6 6 4 6 5 5 5 6 6 4 4 7 17 17 16 15 15 14 14 14
7 8 8 8 8 8 6 7 7 6 5 5 6 7 5 4 4 4 5 5 4 4 7 6 4 6 7 8 7 7 7 6 4 4 6 16 17 18 18 18 18 18 17
8 8 9 8 8 7 7 6 6 7 7 7 7 7 7 6 5 5 5 5 7 6 7 6 7 7 7 7 8 7 7 8 7 4 4 14 17 18 20 21 21 21 21
8 11 9 10 8 8 7 7 7 5 6 6 6 7 9 8 7 6 6 7 7 7 7 7 7 7 7 6 8 7 8 7 7 7 5 6 18 20 21 22 24 24 24
10 10 13 12 11 9 8 8 7 6 6 7 6 8 8 8 8 8 7 7 8 6 7 6 6 5 5 5 8 8 9 10 9 9 6 6 7 18 21 25 26 26 26
6 10 11 12 13 12 9 7 6 7 7 7 7 7 10 9 9 8 7 9 7 6 6 6 6 6 6 7 5 6 6 6 9 10 9 8 8 9 14 25 25 25 26
7 8 9 11 14 15 13 9 8 10 7 7 5 7 11 10 11 10 9 8 5 5 7 7 6 7 7 7 7 6 7 8 9 9 11 12 13 12 9 16 24 26 26
8 5 4 7 11 13 9 7 4 4 7 4 7 7 7 9 9 7 8 7 3 5 7 3 8 5 8 9 8 10 8 10 9 10 12 11 12 12 12 12 11 13 24
8 9 8 5 6 6 4 5 4 9 3 3 5 6 6 6 7 7 8 7 6 9 11 10 8 9 10 4 3 8 8 9 11 11 10 11 13 11 12 11 9 8 9
7 8 8 7 6 3 3 3 4 4 3 2 4 5 7 7 8 8 11 11 10 9 11 10 11 10 10 5 8 1 7 7 10 13 12 11 13 10 12 13 13 13 11
10 10 8 8 7 7 2 2 2 3 1 1 2 3 7 9 10 11 13 10 10 9 11 11 10 13 11 6 11 8 3 7 3 3 10 12 13 10 11 12 14 13 12
8 8 9 8 8 8 8 6 5 2 3 3 3 3 5 7 11 12 13 11 10 8 11 11 10 11 12 14 4 12 15 5 5 6 3 5 6 11 11 10 12 11 12
7 8 8 9 10 9 9 7 4 4 2 2 3 6 6 6 7 9 11 11 10 9 10 12 13 12 11 12 12 9 10 12 13 12 13 15 3 7 8 10 11 10 12
7 7 7 8 8 8 8 8 8 8 7 5 5 4 4 4 5 6 6 8 11 11 11 12 14 13 12 12 11 12 12 8 10 9 12 14 14 14 7 9 11 11 10
Wind_Direction
182 162 162 169 162 152 146 148 141 142 137 165 152 145 109 120 105 97 89 91 89 87 75 78 97 89 90 102 93 86 88 86 92 86 75 93 81 86 77 65 53 79 80
148 160 160 171 163 152 150 144 148 144 149 157 165 144 144 118 127 106 97 84 84 93 80 61 64 111 82 121 106 100 85 85 93 88 84 106 109 85 74 66 79 81 84
140 151 159 160 160 155 152 150 143 155 176 164 149 170 134 124 116 107 106 101 81 86 78 71 8 90 93 86 98 92 79 355 358 360 325 198 103 91 91 82 71 84 81
145 148 153 160 159 158 156 156 152 166 170 165 184 155 136 129 106 107 86 97 96 92 87 91 89 123 102 141 110 105 73 340 349 347 359 152 104 89 89 90 94 88 81
147 151 155 158 161 164 163 161 159 177 181 198 186 151 136 136 130 124 117 124 102 98 98 102 76 134 112 120 105 104 336 341 347 340 290 109 105 121 100 88 87 94 100
144 151 157 159 164 164 167 161 165 178 186 180 116 109 164 160 127 133 136 143 133 136 127 145 148 198 177 206 259 138 287 314 347 338 152 130 131 130 122 109 108 102 97
139 141 155 161 166 167 166 166 174 183 188 169 136 106 106 141 145 167 156 156 167 161 170 185 188 200 209 207 244 189 274 307 336 346 178 140 142 145 137 130 132 124 114
145 144 151 158 161 167 169 170 183 193 196 201 169 185 186 206 161 174 206 213 180 190 199 204 206 215 225 223 236 211 265 294 318 349 193 149 163 165 154 141 146 152 137
144 145 147 150 162 166 175 173 186 197 211 202 183 197 193 168 179 172 211 199 193 196 210 215 222 218 220 221 220 220 253 282 294 295 254 170 173 179 166 163 170 170 165
154 156 162 161 161 168 177 175 188 197 192 212 167 194 209 180 185 193 182 185 190 199 213 227 231 229 222 225 220 222 232 267 276 275 253 193 185 191 185 186 202 205 194
182 167 171 168 170 176 182 190 187 202 216 192 175 186 183 190 201 196 194 202 195 204 222 234 235 232 226 226 229 226 215 226 250 256 233 205 198 202 201 202 211 222 223
200 202 174 175 179 180 186 187 186 194 197 186 179 185 194 208 209 209 198 191 202 215 226 237 236 227 218 222 238 236 216 225 225 235 217 209 207 210 213 214 217 225 232
205 189 185 172 186 181 190 179 182 180 181 190 193 195 205 217 208 195 176 197 200 219 222 233 238 222 218 222 234 230 225 228 228 229 218 203 209 216 220 222 224 228 232
205 199 196 189 183 188 157 174 181 187 191 197 208 201 197 213 201 192 189 196 196 209 216 219 220 223 223 227 221 227 223 223 223 234 227 206 209 219 224 229 230 231 234
212 204 202 193 187 186 181 177 185 197 192 200 204 204 194 205 204 200 201 197 208 206 212 213 218 223 227 229 228 210 221 230 230 225 217 215 213 220 228 230 232 236 237
205 208 201 198 188 184 188 188 191 184 195 196 203 204 198 198 201 201 208 218 219 208 205 211 212 218 222 215 231 229 231 231 227 226 219 224 220 220 228 236 238 238 239
208 193 196 192 190 187 195 191 197 198 194 203 206 207 207 203 202 200 212 221 221 210 213 216 222 222 233 232 226 227 229 233 237 233 223 224 228 228 225 236 241 242 242
198 192 190 191 192 194 192 193 189 201 203 207 208 207 212 212 204 215 219 226 214 210 212 218 221 230 225 224 234 236 236 227 230 230 232 230 226 230 233 233 236 240 241
251 215 196 190 189 196 203 197 194 200 206 209 203 212 217 213 212 215 227 237 212 217 222 220 227 224 233 237 241 242 241 240 238 234 231 228 229 227 228 236 231 234 238
20 9 270 216 193 196 194 198 205 203 216 197 216 222 214 225 223 222 242 250 215 240 246 257 245 230 237 236 239 244 237 243 244 242 245 239 233 227 228 232 234 238 237
21 26 18 7 254 200 151 178 199 213 198 209 217 228 220 222 216 212 226 220 204 220 228 221 227 231 243 211 238 253 265 254 251 245 241 239 239 230 231 228 226 233 241
16 14 12 12 10 215 230 202 162 167 209 199 211 227 217 218 216 216 223 229 220 229 235 226 221 237 246 201 232 211 269 275 247 244 237 238 243 238 233 228 230 227 225
18 2 3 3 7 27 79 91 42 65 22 232 242 238 231 225 228 226 233 232 231 221 236 233 229 230 243 234 214 220 235 236 332 271 243 244 245 241 239 238 232 229 228
6 11 26 25 23 29 38 40 23 341 302 296 265 261 262 234 236 232 234 228 224 221 233 236 232 231 228 240 210 230 238 205 235 297 256 270 252 248 235 234 237 228 223
16 24 25 26 25 20 28 41 53 26 291 301 309 314 302 283 254 249 240 234 225 224 233 237 241 232 234 237 236 232 231 245 255 255 267 278 241 247 238 233 230 229 225
16 29 37 41 28 25 29 26 33 29 2 6 350 344 327 315 312 308 268 243 238 236 236 239 246 250 237 239 241 242 237 229 238 240 253 256 260 267 245 244 243 240 235